EW2927 Weather Reports


Display with metric or nautical units.
time (UTC)temp
F
wind
direction
speed
MPH
gust
MPH
rain 1hr
in
rain 24hr
in
rain mn
in
humidity
%
barometer
mb
20180920190051 94 140 6.0 11.0 0.00 0.00 0.00 57 1016.5
20180920185046 94 137 4.0 9.0 0.00 0.00 0.00 58 1016.5
20180920184047 94 177 4.0 9.0 0.00 0.00 0.00 57 1016.7
20180920183050 94 153 4.0 9.0 0.00 0.00 0.00 59 1016.8
20180920182045 95 135 4.0 10.0 0.00 0.00 0.00 60 1017.0
20180920181045 94 118 6.0 9.0 0.00 0.00 0.00 59 1017.1
20180920180050 94 137 4.0 8.0 0.00 0.00 0.00 60 1017.2
20180920175044 94 109 2.0 5.0 0.00 0.00 0.00 61 1017.4
20180920174045 94 114 3.0 9.0 0.00 0.00 0.00 61 1017.5
20180920173048 94 117 2.0 4.0 0.00 0.00 0.00 59 1017.6
20180920172044 93 77 2.0 6.0 0.00 0.00 0.00 60 1017.7
20180920171044 93 122 3.0 10.0 0.00 0.00 0.00 64 1017.9
20180920170047 92 156 3.0 6.0 0.00 0.00 0.00 62 1017.9
20180920165043 92 124 4.0 8.0 0.00 0.00 0.00 61 1018.1
20180920164042 93 102 3.0 7.0 0.00 0.00 0.00 63 1018.1
20180920163046 92 126 2.0 5.0 0.00 0.00 0.00 64 1018.2
20180920162042 92 138 3.0 5.0 0.00 0.00 0.00 64 1018.3
20180920161042 92 120 3.0 5.0 0.00 0.00 0.00 64 1018.4
20180920160046 91 133 2.0 5.0 0.00 0.00 0.00 68 1018.5
20180920155042 90 158 2.0 5.0 0.00 0.00 0.00 72 1018.6
20180920154041 91 114 2.0 5.0 0.00 0.00 0.00 72 1018.6
20180920153045 91 72 2.0 8.0 0.00 0.00 0.00 71 1018.7
20180920152040 90 16 2.0 3.0 0.00 0.00 0.00 72 1018.5
20180920151041 89 72 2.0 4.0 0.00 0.00 0.00 70 1018.6
20180920150044 88 70 2.0 4.0 0.00 0.00 0.00 73 1018.6
20180920145039 87 74 2.0 3.0 0.00 0.00 0.00 76 1018.5
20180920144039 86 53 2.0 5.0 0.00 0.00 0.00 77 1018.4
20180920143044 86 67 2.0 4.0 0.00 0.00 0.00 79 1018.4
20180920142039 86 121 2.0 3.0 0.00 0.00 0.00 80 1018.4
20180920141039 84 128 1.0 3.0 0.00 0.00 0.00 80 1018.4
20180920140043 82 128 1.0 3.0 0.00 0.00 0.00 69 1018.2
20180920135038 81 136 2.0 3.0 0.00 0.00 0.00 27 1018.1
20180920134038 79 139 1.0 3.0 0.00 0.00 0.00 4 1017.9
20180920133042 78 114 1.0 3.0 0.00 0.00 0.00 7 1017.8
20180920132037 77 140 0.0 1.0 0.00 0.00 0.00 8 1017.6
20180920131037 76 0 0.0 0.0 0.00 0.00 0.00 10 1017.6
20180920130042 75 139 0.0 1.0 0.00 0.00 0.00 10 1017.5
20180920125036 75 140 0.0 2.0 0.00 0.00 0.00 10 1017.3
20180920124036 74 140 0.0 2.0 0.00 0.00 0.00 10 1017.2
20180920123040 73 0 0.0 0.0 0.00 0.00 0.00 10 1017.0
20180920122036 73 0 0.0 0.0 0.00 0.00 0.00 10 1016.9
20180920121036 73 0 0.0 0.0 0.00 0.00 0.00 10 1016.8
20180920120040 72 0 0.0 0.0 0.00 0.00 0.00 10 1016.7
20180920115120 72 0 0.0 0.0 0.00 0.00 0.00 11 1016.6
20180920114034 72 0 0.0 0.0 0.00 0.00 0.00 11 1016.4
20180920113038 72 0 0.0 0.0 0.00 0.00 0.00 10 1016.2
20180920112033 72 0 0.0 0.0 0.00 0.00 0.00 11 1016.2
20180920111033 72 0 0.0 0.0 0.00 0.00 0.00 11 1016.1
20180920110037 72 0 0.0 0.0 0.00 0.00 0.00 11 1016.1
20180920105033 73 140 0.0 1.0 0.00 0.00 0.00 11 1016.1
20180920104033 73 139 1.0 2.0 0.00 0.00 0.00 11 1016.1
20180920103036 73 139 0.0 3.0 0.00 0.00 0.00 11 1015.9
20180920102032 73 139 1.0 1.0 0.00 0.00 0.00 11 1015.8
20180920101031 73 0 0.0 0.0 0.00 0.00 0.00 12 1015.7
20180920100035 73 139 0.0 1.0 0.00 0.00 0.00 12 1015.6
20180920095031 73 139 0.0 1.0 0.00 0.00 0.00 12 1015.5
20180920094031 73 0 0.0 0.0 0.00 0.00 0.00 12 1015.3
20180920093035 73 0 0.0 0.0 0.00 0.00 0.00 12 1015.2
20180920092031 73 0 0.0 0.0 0.00 0.00 0.00 13 1015.1
20180920091030 73 0 0.0 0.0 0.00 0.00 0.00 13 1015.1
20180920090035 73 139 0.0 1.0 0.00 0.00 0.00 13 1015.1
20180920085030 73 139 0.0 1.0 0.00 0.00 0.00 13 1015.0
20180920084029 73 0 0.0 0.0 0.00 0.00 0.00 14 1015.0
20180920083033 74 0 0.0 0.0 0.00 0.00 0.00 13 1015.0
20180920082029 74 0 0.0 0.0 0.00 0.00 0.00 14 1015.0
20180920081028 74 0 0.0 0.0 0.00 0.00 0.00 15 1015.0
20180920080033 74 0 0.0 0.0 0.00 0.00 0.00 15 1015.0
20180920075028 74 140 1.0 2.0 0.00 0.00 0.00 14 1015.1
20180920074027 74 139 0.0 1.0 0.00 0.00 0.00 14 1015.0
20180920073032 74 0 0.0 0.0 0.00 0.00 0.00 14 1015.1
20180920072027 74 0 0.0 0.0 0.00 0.00 0.00 15 1015.0
20180920071026 74 0 0.0 0.0 0.00 0.00 0.00 16 1015.1
20180920070030 74 139 0.0 1.0 0.00 0.00 0.00 18 1015.0
20180920065026 74 140 0.0 1.0 0.00 0.00 0.00 20 1015.1
20180920064026 74 0 0.0 0.0 0.00 0.00 0.00 18 1015.2
20180920063030 74 140 0.0 1.0 0.00 0.00 0.00 21 1015.1
20180920062026 74 140 0.0 2.0 0.00 0.00 0.00 23 1015.2
20180920061025 74 0 0.0 0.0 0.00 0.00 0.00 24 1015.1
20180920060029 75 140 0.0 2.0 0.00 0.00 0.00 24 1015.2
20180920055024 75 140 0.0 1.0 0.00 0.00 0.00 24 1015.1
20180920054024 75 140 0.0 1.0 0.00 0.00 0.00 24 1015.2
20180920053027 75 0 0.0 0.0 0.00 0.00 0.00 24 1015.3
20180920052023 75 140 0.0 1.0 0.00 0.00 0.00 26 1015.2
20180920051023 76 140 0.0 1.0 0.00 0.00 0.00 26 1015.2
20180920050035 76 0 0.0 0.0 0.00 0.00 0.00 28 1015.4
20180920045023 76 0 0.0 0.0 0.00 0.00 0.00 30 1015.3
20180920044022 76 0 0.0 0.0 0.00 0.00 0.00 31 1015.4
20180920043026 76 139 0.0 1.0 0.00 0.00 0.00 35 1015.4
20180920042022 76 0 0.0 0.0 0.00 0.00 0.00 40 1015.3
20180920041021 76 0 0.0 0.0 0.00 0.00 0.00 42 1015.3
20180920040025 76 0 0.0 0.0 0.00 0.00 0.00 46 1015.3
20180920035021 77 0 0.0 0.0 0.00 0.00 0.00 44 1015.4
20180920034021 77 0 0.0 0.0 0.00 0.00 0.00 43 1015.3
20180920033024 77 0 0.0 0.0 0.00 0.00 0.00 44 1015.3
20180920032021 77 139 1.0 2.0 0.00 0.00 0.00 44 1015.3
20180920031020 77 0 0.0 0.0 0.00 0.00 0.00 48 1015.1
20180920030024 77 0 0.0 0.0 0.00 0.00 0.00 49 1015.0
20180920025019 78 0 0.0 0.0 0.00 0.00 0.00 55 1014.9
20180920024019 78 140 0.0 2.0 0.00 0.00 0.00 58 1014.9
20180920023023 78 140 0.0 2.0 0.00 0.00 0.00 63 1014.8
20180920022019 78 140 0.0 1.0 0.00 0.00 0.00 68 1014.6
20180920021019 78 124 1.0 5.0 0.00 0.00 0.00 71 1014.6
20180920020022 78 56 0.0 1.0 0.00 0.00 0.00 73 1014.5
20180920015018 78 55 1.0 2.0 0.00 0.00 0.00 76 1014.3
20180920014018 79 0 0.0 0.0 0.00 0.00 0.00 79 1014.3
20180920013021 79 0 0.0 0.0 0.00 0.00 0.00 79 1014.1
20180920012017 80 0 0.0 0.0 0.00 0.00 0.00 79 1014.0
20180920011016 80 0 0.0 0.0 0.00 0.00 0.00 78 1013.8
20180920010020 80 55 0.0 1.0 0.00 0.00 0.00 80 1013.7
20180920005016 81 0 0.0 0.0 0.00 0.00 0.00 80 1013.6
20180920004015 81 0 0.0 0.0 0.00 0.00 0.00 80 1013.4
20180920003020 82 0 0.0 0.0 0.00 0.00 0.00 80 1013.3
20180920002016 83 0 0.0 0.0 0.00 0.00 0.00 80 1013.2
20180920001015 83 55 0.0 1.0 0.00 0.00 0.00 78 1013.3
20180920000018 84 55 0.0 1.0 0.00 0.00 0.00 78 1013.3
20180919235014 86 55 0.0 1.0 0.00 0.00 0.00 74 1013.2
20180919234014 87 56 0.0 1.0 0.00 0.00 0.00 71 1013.3
20180919233018 88 0 0.0 0.0 0.00 0.00 0.00 71 1013.3
20180919232014 90 0 0.0 0.0 0.00 0.00 0.00 65 1013.3
20180919231013 91 0 0.0 0.0 0.00 0.00 0.00 62 1013.3
20180919230018 92 89 0.0 1.0 0.00 0.00 0.00 59 1013.1
20180919225013 94 88 0.0 1.0 0.00 0.00 0.00 59 1013.1
20180919224013 95 0 0.0 0.0 0.00 0.00 0.00 57 1013.0
20180919223017 96 88 0.0 2.0 0.00 0.00 0.00 56 1013.0
20180919222012 96 89 0.0 1.0 0.00 0.00 0.00 55 1012.9
20180919221012 96 89 0.0 1.0 0.00 0.00 0.00 56 1012.8
20180919220015 96 89 0.0 1.0 0.00 0.00 0.00 54 1013.0
20180919215011 95 89 1.0 3.0 0.00 0.00 0.00 54 1012.7
20180919214011 95 60 1.0 2.0 0.00 0.00 0.00 52 1012.9
20180919213014 95 53 1.0 3.0 0.00 0.00 0.00 55 1012.9
20180919212010 95 84 2.0 4.0 0.00 0.00 0.00 55 1013.0
20180919211010 95 100 2.0 4.0 0.00 0.00 0.00 54 1013.0
20180919210014 96 111 2.0 6.0 0.00 0.00 0.00 52 1012.8
20180919205010 96 97 2.0 4.0 0.00 0.00 0.00 55 1012.9
20180919204009 96 258 1.0 3.0 0.00 0.00 0.00 53 1013.0
20180919203013 96 286 2.0 5.0 0.00 0.00 0.00 55 1013.1
20180919202008 95 275 2.0 5.0 0.00 0.00 0.00 56 1013.2
20180919201008 94 272 1.0 3.0 0.00 0.00 0.00 54 1013.2
20180919200012 94 279 2.0 6.0 0.00 0.00 0.00 54 1013.3
20180919195008 93 198 1.0 3.0 0.00 0.00 0.00 58 1013.4
20180919194007 94 170 2.0 4.0 0.00 0.00 0.00 53 1013.5
20180919193012 94 194 3.0 5.0 0.00 0.00 0.00 56 1013.6
20180919192007 93 174 2.0 5.0 0.00 0.00 0.00 55 1013.8
20180919191007 92 125 3.0 6.0 0.00 0.00 0.00 61 1013.9